Location: Balcones
(3.7244°N, 75.6017°W)
Time: 23:56:12
(UTC+00:00)

Cosmos 2333 Rocket - Pass Details

Date: 13 December 2025
Orbit: 838 x 865 km, 70.8° (Epoch: 20 January)

Event Time Altitude Azimuth Distance (km) Brightness Sun altitude
Rises 23:18:17 0° 197° (SSW) 3,400 6.0 -6.4°
Reaches altitude 10° 23:20:43 10° 198° (SSW) 2,467 5.3 -6.9°
Maximum altitude 23:26:24 82° 285° (WNW) 861 2.4 -8.2°
Drops below altitude 10° 23:32:06 10° 13° (NNE) 2,479 4.3 -9.5°
Sets 23:34:34 0° 14° (NNE) 3,418 5.0 -10.1°
